EW4787 Weather Reports


time (UTC)temp
C
wind
direction
speed
KPH
gust
KPH
rain 1hr
cm
rain 24hr
cm
rain mn
cm
humidity
%
barometer
mb
20260506124552 -17 11 0.0 8.0 0.00 0.00 0.00 1007.9
20260506123047 -17 34 0.0 9.7 0.00 0.00 0.00 1007.8
20260506121546 -17 267 3.2 9.7 0.00 0.00 0.00 1007.7
20260506120048 -17 327 1.6 12.9 0.00 0.00 0.00 1007.8
20260506114548 -17 336 3.2 12.9 0.00 0.00 0.00 1007.8
20260506113050 -17 5 3.2 9.7 0.00 0.00 0.00 1007.7
20260506111542 -17 334 0.0 16.1 0.00 0.00 0.00 1007.8
20260506110038 -17 331 6.4 16.1 0.00 0.00 0.00 1007.8
20260506104537 -17 319 3.2 14.5 0.00 0.00 0.00 1007.8
20260506103032 -17 345 4.8 19.3 0.00 0.00 0.00 1007.8
20260506101533 -17 19 0.0 12.9 0.00 0.00 0.00 1007.6
20260506100028 -17 60 4.8 16.1 0.00 0.00 0.00 1007.8
20260506094516 -17 334 0.0 12.9 0.00 0.00 0.00 1007.8
20260506093014 -17 15 1.6 20.9 0.00 0.00 0.00 1007.8
20260506091510 -17 338 6.4 19.3 0.00 0.00 0.00 1007.8
20260506090004 -17 355 3.2 16.1 0.00 0.00 0.00 1007.7
20260506084603 -17 5 3.2 12.9 0.00 0.00 0.00 1007.6
20260506083059 -17 5 4.8 14.5 0.00 0.00 0.00 1007.5
20260506081554 -17 321 4.8 16.1 0.00 0.00 0.00 1007.6
20260506073039 -17 323 3.2 14.5 0.00 0.00 0.00 1007.5
20260506071534 -17 36 3.2 14.5 0.00 0.00 0.00 1007.5
20260506061517 -17 355 4.8 16.1 0.00 0.00 0.00 1007.1
20260506044615 -17 355 3.2 8.0 0.00 0.00 0.00 1006.9
20260506043047 -17 342 1.6 4.8 0.00 0.00 0.00 1006.9
20260506041542 -17 344 3.2 8.0 0.00 0.00 0.00 1006.9
20260506040041 -17 27 3.2 8.0 0.00 0.00 0.00 1006.7
20260506034534 -17 40 3.2 8.0 0.00 0.00 0.00 1006.9
20260506033034 -17 24 3.2 12.9 0.00 0.00 0.00 1006.8
20260506031526 -17 18 3.2 9.7 0.00 0.00 0.00 1006.8
20260506030021 -17 333 4.8 14.5 0.00 0.00 0.00 1006.9
20260506024518 -17 40 4.8 14.5 0.00 0.00 0.00 1007.0
20260506023023 -17 32 3.2 8.0 0.00 0.00 0.00 1007.1
20260506021518 -17 13 3.2 11.3 0.00 0.00 0.00 1007.2
20260506020004 -17 25 1.6 8.0 0.00 0.00 0.00 1007.2
20260506014603 -17 82 1.6 6.4 0.00 0.00 0.00 1007.3
20260506013104 -17 53 3.2 8.0 0.00 0.00 0.00 1007.3
20260506011552 -17 72 0.0 0.0 0.00 0.00 0.00 1007.3
20260506010055 -17 44 0.0 0.0 0.00 0.00 0.00 1007.4
20260506004548 -17 342 0.0 8.0 0.00 0.00 0.00 1007.5
20260506003038 -17 44 0.0 9.7 0.00 0.00 0.00 1007.5
20260506001539 -17 35 3.2 8.0 0.00 0.00 0.00 1007.6
20260506000030 -17 355 4.8 17.7 0.00 0.00 0.00 1007.5
20260505234539 -17 22 3.2 11.3 0.00 0.00 0.00 1007.6
20260505233033 -17 10 3.2 11.3 0.00 0.00 0.00 1007.6
20260505231519 -17 335 1.6 8.0 0.00 0.00 0.00 1007.4
20260505230014 -17 27 3.2 8.0 0.00 0.00 0.00 1007.5
20260505224514 -17 344 3.2 11.3 0.00 0.00 0.00 1007.5
20260505223013 -17 28 1.6 9.7 0.00 0.00 0.00 1007.7
20260505221513 -17 355 0.0 9.7 0.00 0.00 0.00 1007.7
20260505220013 -17 12 0.0 4.8 0.00 0.00 0.00 1007.5
20260505214511 -17 342 0.0 6.4 0.00 0.00 0.00 1007.5
20260505213011 -17 50 0.0 8.0 0.00 0.00 0.00 1007.5
20260505211512 -17 66 1.6 6.4 0.00 0.00 0.00 1007.5
20260505210010 -17 31 1.6 6.4 0.00 0.00 0.00 1007.5
20260505204509 -17 67 0.0 6.4 0.00 0.00 0.00 1007.5
20260505203016 -17 13 3.2 12.9 0.00 0.00 0.00 1007.4
20260505201509 -17 48 3.2 8.0 0.00 0.00 0.00 1007.2
20260505200007 -17 21 0.0 4.8 0.00 0.00 0.00 1007.1
20260505194507 -17 17 0.0 4.8 0.00 0.00 0.00 1006.8
20260505193005 -17 56 3.2 9.7 0.00 0.00 0.00 1006.6
20260505191559 -17 355 0.0 6.4 0.00 0.00 0.00 1006.7
20260505190054 -17 19 0.0 6.4 0.00 0.00 0.00 1006.5
20260505184551 -17 57 1.6 4.8 0.00 0.00 0.00 1006.4
20260505183046 -17 59 0.0 0.0 0.00 0.00 0.00 1006.3
20260505181541 -17 79 1.6 6.4 0.00 0.00 0.00 1006.3
20260505180057 -17 350 0.0 6.4 0.00 0.00 0.00 1006.3
20260505174549 -17 331 3.2 6.4 0.00 0.00 0.00 1006.3
20260505173033 -17 67 1.6 8.0 0.00 0.00 0.00 1006.3
20260505171525 -17 45 3.2 16.1 0.00 0.00 0.00 1006.4
20260505170018 -17 44 0.0 12.9 0.00 0.00 0.00 1006.4
20260505164517 -17 36 4.8 14.5 0.00 0.00 0.00 1006.4
20260505163019 -17 347 4.8 16.1 0.00 0.00 0.00 1006.4
20260505161509 -17 53 6.4 16.1 0.00 0.00 0.00 1006.4
20260505153056 -17 15 0.0 14.5 0.00 0.00 0.00 1006.5
20260505151552 -17 63 0.0 0.0 0.00 0.00 0.00 1006.5